This is the latest recevied weather packets stored in our database for station/object SV2BZQ-2. If no packets are shown the sender has not sent any weather packets the latest 1 day(s).
| Time | Temp. | Humidity | Pressure | Rain* | Wind** | Luminosity | Snow |
|---|---|---|---|---|---|---|---|
| 1778048924 | 16.67° C | 81% | 1014.4 hPa | 0 mm | 0.89 m/s, 289° | 497 W/m² | - |
| 1778048807 | 16.67° C | 81% | 1014.5 hPa | 0 mm | 0.89 m/s, 290° | 483 W/m² | - |
| 1778048540 | 16.67° C | 82% | 1014.5 hPa | 0 mm | 0.45 m/s, 326° | 471 W/m² | - |
| 1778048417 | 16.11° C | 82% | 1014.5 hPa | 0 mm | 0.45 m/s, 302° | 388 W/m² | - |
| 1778048259 | 16.11° C | 83% | 1014.5 hPa | 0 mm | 0.45 m/s, 323° | 469 W/m² | - |
| 1778048138 | 16.11° C | 84% | 1014.5 hPa | 0 mm | 0.45 m/s, 306° | 454 W/m² | - |
| 1778048036 | 16.11° C | 84% | 1014.5 hPa | 0 mm | 0.89 m/s, 233° | 475 W/m² | - |
| 1778047910 | 15.56° C | 84% | 1014.5 hPa | 0 mm | 0.45 m/s, 237° | 462 W/m² | - |
| 1778047803 | 15.56° C | 84% | 1014.5 hPa | 0 mm | 0.45 m/s, 268° | 468 W/m² | - |
| 1778047701 | 15.56° C | 85% | 1014.5 hPa | 0 mm | 0.45 m/s, 274° | 466 W/m² | - |
| 1778047605 | 15° C | 85% | 1014.5 hPa | 0 mm | 0.45 m/s, 273° | 464 W/m² | - |
| 1778047514 | 15° C | 85% | 1014.4 hPa | 0 mm | 0 m/s | 436 W/m² | - |
| 1778047285 | 15° C | 85% | 1014.4 hPa | 0 mm | 0 m/s | 432 W/m² | - |
| 1778047181 | 15° C | 86% | 1014.4 hPa | 0 mm | 0.45 m/s, 305° | 427 W/m² | - |
| 1778047085 | 14.44° C | 86% | 1014.3 hPa | 0 mm | 0.45 m/s, 305° | 424 W/m² | - |
| 1778046987 | 14.44° C | 86% | 1014.3 hPa | 0 mm | 0.45 m/s, 314° | 406 W/m² | - |
| 1778046867 | 14.44° C | 86% | 1014.3 hPa | 0 mm | 0.45 m/s, 304° | 385 W/m² | - |
| 1778046743 | 14.44° C | 86% | 1014.4 hPa | 0 mm | 0.89 m/s, 312° | 388 W/m² | - |
| 1778046596 | 14.44° C | 86% | 1014.3 hPa | 0 mm | 0.89 m/s, 319° | 390 W/m² | - |
| 1778046482 | 14.44° C | 87% | 1014.3 hPa | 0 mm | 0.89 m/s, 300° | 396 W/m² | - |
| 1778046402 | 13.89° C | 86% | 1014.3 hPa | 0 mm | 0.89 m/s, 300° | 388 W/m² | - |
| 1778046298 | 13.89° C | 87% | 1014.3 hPa | 0 mm | 0.45 m/s, 280° | 373 W/m² | - |
| 1778046189 | 13.89° C | 87% | 1014.3 hPa | 0 mm | 0.45 m/s, 281° | 302 W/m² | - |
| 1778046070 | 13.89° C | 87% | 1014.3 hPa | 0 mm | 0.45 m/s, 292° | 274 W/m² | - |
| 1778045953 | 13.89° C | 87% | 1014.3 hPa | 0 mm | 0.45 m/s, 293° | 287 W/m² | - |
* Rain latest hour (hover to see other rain measurements)
** Current wind speed in m/s (hover to see current wind gust speed)